Flag for Czech Republic Weather past 2 weeks in Brno, Czech Republic

Now
72 °F

Clear.


Feels Like: 77 °F
Forecast: 57 / 68 °F
Wind: 3 mph from Northeast

Location: Brno / Turany

Current Time: Sep 1, 2015 at 2:17:08 AM

Latest Report: Sep 1, 2015 at 1:00 AM


Visibility: 13 mi

Pressure: 29.85 "Hg

Humidity: 54%

Dew point: 55 °F

Location of BrnoLocation

Historic Weather in Brno — Graph

°F

Brno temperature yesterday

Maximum temperature yesterday: 92 °F (at 2:00 PM)
Minimum temperature yesterday: 65 °F (at 6:00 AM)
Average temperature yesterday: 79 °F

Past Weeks' High & Low Weather Summary

 TemperatureHumidityPressure
High92 °F (Aug 30, 5:00 PM)99% (Aug 18, 3:00 AM)30.24 "Hg (Aug 18, 3:00 AM)
Low52 °F (Aug 26, 5:00 AM)30% (Aug 31, 4:00 PM)29.72 "Hg (Aug 17, 3:00 AM)
Average69 °F67%30.03 "Hg
* Reported Aug 17 1:00 AM — Sep 1 1:00 AM, Brno, Weather by CustomWeather, © 2015

Note: Actual official high and low records may vary slightly from our data, if they occured in-between our weather recording intervals... More about our weather records

Advertising

Brno weather history for previous 24 hours

 ConditionsComfort  
Time TempWeatherWind HumidityBarometerVisibility
1:00 AM
Tue, Sep 1
72 °FClear.3 mph54%29.85 "Hg12 mi
12:00 AM75 °FClear.2 mph49%29.85 "Hg12 mi
10:00 PM
Mon, Aug 31
77 °FPassing clouds.2 mph48%29.86 "Hg12 mi
9:00 PM77 °FPassing clouds.5 mph52%29.87 "Hg12 mi
8:00 PM81 °FPassing clouds.5 mph47%29.85 "Hg16 mi
7:00 PM85 °FSunny.6 mph43%29.84 "Hg16 mi
6:00 PM89 °FPassing clouds.6 mph41%29.85 "Hg16 mi
5:00 PM91 °FPassing clouds.7 mph36%29.86 "Hg16 mi
4:00 PM91 °FPassing clouds.10 mph30%29.88 "Hg16 mi
3:00 PM91 °FPassing clouds.8 mph38%29.90 "Hg16 mi
2:00 PM92 °FPassing clouds.8 mph34%29.90 "Hg11 mi
1:00 PM88 °FPassing clouds.5 mph46%29.93 "Hg9 mi
12:00 PM85 °FSunny.5 mph50%29.95 "Hg9 mi
11:00 AM83 °FSunny.5 mph55%29.96 "Hg9 mi
10:00 AM80 °FSunny.5 mph60%29.98 "Hg9 mi
9:00 AM77 °FSunny.5 mph64%29.99 "Hg9 mi
8:00 AM71 °FPassing clouds.3 mph68%30.00 "Hg9 mi
7:00 AM66 °FPassing clouds.3 mph77%30.01 "Hg9 mi
6:00 AM65 °FClear.5 mph78%30.00 "Hg11 mi
5:00 AM68 °FClear.3 mph70%30.00 "Hg12 mi
4:00 AM67 °FClear.5 mph73%30.01 "Hg11 mi
3:00 AM73 °FClear.1 mph60%30.01 "Hg16 mi
2:00 AM75 °FClear.3 mph55%30.02 "Hg16 mi
Weather by CustomWeather, © 2015

See weather overviewHow to use our weather pages